[[{"header":{"parameterUnit":"m.s-1","parameterCategory":1,"la1":30.2991,"la2":30.254,"lo1":-89.0895,"lo2":-89.0444,"dy":0.0017,"dx":0.0017,"nx":28,"ny":28,"refTime":"2024-08-12T03:00:00:Z","depth":0,"parameterNumber":2,"parameterNumberName":"U-component_of_WINDS"},"data":[0,0,0,0,0,0,0,0,0,0,0,0,0,0,0,0,0,0,0,0,0,0,0,0,0,0,0,0,0,0,0,0,0,0,0,0,0,0,0,0,0,0,0,0,0,0,0,0,0,0,0,0,0,0,0,0,0,0,0.5305,0.5306,0,0.5454,0.5456,0.5457,0.5456,0.5454,0.5452,0.545,0.5611,0.5617,0.5623,0,0,0,0,0,0,0,0,0,0,0,0,0,0.5026,0.5032,0.5305,0.5307,0.5308,0.5454,0.5456,0.5458,0.5456,0.5454,0.5451,0.5449,0.5609,0.5616,0.5623,0,0,0,0,0,0,0,0,0,0,0,0,0,0.5159,0.5033,0.5304,0.5325,0.5328,0.5453,0.5456,0.5458,0.5457,0.5454,0.5451,0.5448,0.5606,0.5615,0.5624,0.5741,0,0,0.5653,0.5657,0,0,0,0,0,0,0,0,0.5151,0.5169,0.532,0.5324,0.5328,0.5433,0.5416,0.5553,0.5457,0.5408,0.545,0.5446,0.5555,0.5568,0.5603,0.5749,0.5756,0.5653,0.5659,0.5663,0.5666,0,0,0,0,0,0,0,0.5142,0.5163,0.5364,0.5322,0.5327,0.5329,0.5345,0.5442,0.5497,0.5412,0.5412,0.543,0.5556,0.5594,0.5606,0.5758,0.5653,0.5661,0.5667,0.5671,0.6009,0.6012,0,0,0,0,0,0,0.5128,0.5155,0.5359,0.5368,0.523,0.5337,0.5354,0.5402,0.5495,0.5507,0.5432,0.5429,0.5579,0.5596,0.5612,0.5756,0.5663,0.5672,0.5677,0.6005,0.601,0.6013,0,0,0,0,0,0,0.5122,0.5146,0.5353,0.5262,0.5288,0.5344,0.5399,0.5407,0.5444,0.551,0.5521,0.546,0.5578,0.5599,0.5709,0.5762,0.5676,0.5684,0.6001,0.6007,0.6012,0.6045,0,0,0,0,0,0,0.5114,0.5144,0.5187,0.5263,0.5293,0.5445,0.5402,0.5412,0.5459,0.5457,0.5539,0.555,0.5577,0.5695,0.5718,0.5773,0.5691,0.5997,0.6004,0.601,0.6039,0.605,0.606,0,0,0,0,0,0.5104,0.5192,0.5189,0.5214,0.5348,0.5448,0.5466,0.5493,0.5463,0.5509,0.5551,0.5548,0.5751,0.5706,0.5732,0.5791,0.5994,0.6002,0.6009,0.6035,0.6048,0.606,0,0,0,0,0,0,0.5125,0.5202,0.52,0.5315,0.5375,0.5448,0.5506,0.5506,0.5578,0.5573,0.5605,0.5624,0.5734,0.5773,0.5721,0.5909,0.5869,0.5883,0.588,0.5893,0.5903,0.5893,0.5699,0,0,0,0,0,0.5142,0.5214,0.5279,0.5375,0.5404,0.545,0.5495,0.5509,0.5574,0.56,0.565,0.5715,0.5794,0.5845,0.5921,0.6044,0.6063,0.6097,0.6107,0.6115,0.6127,0.6196,0.6213,0.6039,0.6039,0.6039,0,0,0.518,0.5231,0.5276,0.538,0.5428,0.5505,0.5471,0.5554,0.5612,0.5614,0.572,0.5759,0.5833,0.595,0.6004,0.5986,0.6179,0.6125,0.6131,0.6139,0.6206,0.6223,0.6237,0.6044,0.6043,0.6042,0,0,0.5288,0.5333,0.5418,0.5466,0.5538,0.5567,0.5588,0.5661,0.5686,0.5792,0.5795,0.5865,0.6,0.6053,0.6098,0.6225,0.6225,0.6248,0.6304,0.6371,0.6385,0.6397,0.6444,0.646,0.626,0.626,0.626,0,0.5328,0.5441,0.5462,0.5545,0.5592,0.5593,0.568,0.5727,0.5821,0.5855,0.5832,0.6001,0.6051,0.6181,0.6211,0.6247,0.6273,0.6241,0.638,0.6393,0.6405,0.645,0.6468,0.6262,0.6262,0.6262,0.6262,0,0.5486,0.5564,0.5625,0.5712,0.5766,0.5851,0.5888,0.5939,0.5949,0.5981,0.6091,0.615,0.6239,0.627,0.6282,0.6402,0.6389,0.6373,0.6334,0.6423,0.6467,0.6484,0.6266,0.6265,0.6264,0.6264,0,0,0.5615,0.5711,0.5734,0.5774,0.5852,0.5915,0.6,0.6083,0.6128,0.6193,0.6267,0.6379,0.6365,0.6416,0.6433,0.6491,0.659,0.6469,0.6471,0.6491,0.6728,0.6741,0.6761,0.6589,0.6592,0.6595,0.6723,0,0.5733,0.5882,0.5904,0.6036,0.611,0.6111,0.6186,0.6243,0.6275,0.6345,0.6381,0.6461,0.6435,0.6466,0.6523,0.6566,0.6639,0.6556,0.6662,0.6665,0.6645,0.6783,0.6798,0.6915,0.674,0.6742,0.6745,0,0.5892,0.5958,0.6097,0.6165,0.6197,0.6263,0.6342,0.6407,0.6473,0.6492,0.6547,0.6557,0.6648,0.6603,0.673,0.6673,0.6717,0.6745,0.675,0.6763,0.6712,0.6803,0.6953,0.6972,0.6771,0.6769,0.6767,0,0.5975,0.6098,0.6197,0.6231,0.6313,0.636,0.6396,0.6459,0.6507,0.6576,0.6609,0.6688,0.6733,0.6795,0.6827,0.6791,0.6952,0.691,0.6974,0.6973,0.701,0.7008,0.7173,0.7034,0.7034,0.7034,0.7033,0,0.6107,0.6192,0.6235,0.6297,0.6393,0.6417,0.6513,0.6549,0.6604,0.6674,0.668,0.6747,0.6783,0.6855,0.6881,0.6983,0.7003,0.7023,0.7029,0.7024,0.7022,0.7055,0.7049,0.7038,0.7037,0.7036,0.7035,0,0.6216,0.6248,0.6357,0.6424,0.6443,0.6511,0.657,0.6631,0.6661,0.675,0.6772,0.6822,0.6907,0.6943,0.7049,0.7066,0.7184,0.7183,0.7161,0.7164,0.7227,0.7221,0.7421,0.7449,0.729,0.7291,0.7292,0,0.63,0.6365,0.6438,0.6484,0.6521,0.6595,0.6644,0.6671,0.6722,0.6801,0.6853,0.6937,0.7007,0.7143,0.719,0.7271,0.7274,0.7338,0.7287,0.7279,0.7278,0.7274,0.7282,0.7349,0.735,0.7352,0.7353,0,0.6445,0.6457,0.6526,0.66,0.6658,0.6718,0.6778,0.6816,0.6852,0.6909,0.6995,0.7048,0.7154,0.7239,0.7323,0.7363,0.7366,0.7368,0.7387,0.7384,0.737,0.738,0.719,0.7364,0.7363,0.7362,0.7361,0.7361,0.6546,0.6604,0.6664,0.6741,0.6788,0.6843,0.6903,0.694,0.7011,0.7098,0.7109,0.7201,0.7266,0.7377,0.7421,0.7495,0.7479,0.7507,0.7515,0.7522,0.7527,0.7355,0.751,0.751,0.7509,0.7509,0.7509,0,0.6693,0.6731,0.6801,0.6883,0.6943,0.6935,0.7001,0.7053,0.7133,0.7191,0.7258,0.7357,0.7439,0.7491,0.7574,0.7623,0.7626,0.7645,0.7643,0.7652,0.7535,0.7511,0.7641,0.7641,0.7641,0.7641,0.764,0.764,0.6777,0.6876,0.6895,0.7017,0.7056,0.7144,0.7182,0.7233,0.728,0.7389,0.7456,0.7488,0.7545,0.7631,0.7707,0.772,0.7752,0.7771,0.7784,0.7674,0.7661,0.7648,0.7625,0.7777,0.7777,0.7896,0.7897,0.7897]},{"header":{"parameterUnit":"m.s-1","parameterCategory":1,"la1":30.2991,"la2":30.254,"lo1":-89.0895,"lo2":-89.0444,"dy":0.0017,"dx":0.0017,"nx":28,"ny":28,"refTime":"2024-08-12T03:00:00:Z","depth":0,"parameterNumber":3,"parameterNumberName":"V-component_of_WINDS"},"data":[0,0,0,0,0,0,0,0,0,0,0,0,0,0,0,0,0,0,0,0,0,0,0,0,0,0,0,0,0,0,0,0,0,0,0,0,0,0,0,0,0,0,0,0,0,0,0,0,0,0,0,0,0,0,0,0,0,0,1.0236,1.0237,0,1.0334,1.0335,1.0336,1.0304,1.0302,1.03,1.0298,1.0399,1.0403,1.0408,0,0,0,0,0,0,0,0,0,0,0,0,0,1.002,1.0024,1.0236,1.0237,1.0239,1.0334,1.0335,1.0336,1.0304,1.0302,1.0299,1.0297,1.0397,1.0403,1.0408,0,0,0,0,0,0,0,0,0,0,0,0,0,1.0115,1.0025,1.0236,1.0234,1.0235,1.0333,1.0335,1.0337,1.0305,1.0302,1.0299,1.0296,1.0395,1.0402,1.0409,1.0515,0,0,1.043,1.0433,0,0,0,0,0,0,0,0,1.011,1.0123,1.0233,1.0234,1.0235,1.0304,1.0296,1.0397,1.0306,1.0278,1.0298,1.0294,1.037,1.0378,1.0404,1.052,1.0524,1.0431,1.0435,1.0438,1.044,0,0,0,0,0,0,0,1.0103,1.0119,1.0275,1.0235,1.0236,1.0228,1.0238,1.0315,1.0341,1.0281,1.0278,1.029,1.037,1.0397,1.0406,1.0526,1.0431,1.0437,1.0441,1.0444,1.0728,1.0732,0,0,0,0,0,0,1.0096,1.0114,1.0272,1.0278,1.0164,1.0234,1.0245,1.0285,1.034,1.0345,1.0293,1.0289,1.0387,1.0398,1.0409,1.0533,1.0438,1.0444,1.0448,1.0725,1.0729,1.0733,0,0,0,0,0,0,1.0092,1.0111,1.0268,1.0195,1.0214,1.0241,1.0286,1.0289,1.0316,1.0349,1.0353,1.0316,1.0385,1.0399,1.0488,1.0536,1.0448,1.0454,1.0721,1.0726,1.0731,1.0784,0,0,0,0,0,0,1.0086,1.0109,1.0151,1.0196,1.0218,1.0345,1.0289,1.0293,1.0328,1.0323,1.0372,1.0377,1.0383,1.0478,1.0495,1.0544,1.0459,1.0717,1.0723,1.0729,1.0778,1.0791,1.0801,0,0,0,0,0,1.0078,1.0163,1.0153,1.0172,1.0271,1.0348,1.0361,1.0366,1.0332,1.0373,1.0393,1.0376,1.0529,1.0487,1.0506,1.0558,1.0714,1.0722,1.0729,1.0773,1.0788,1.0801,0,0,0,0,0,0,1.0124,1.0169,1.0158,1.0261,1.0301,1.0343,1.0395,1.0383,1.0433,1.0427,1.0431,1.0442,1.0532,1.0555,1.0507,1.0661,1.0616,1.0628,1.0643,1.0658,1.0669,1.066,1.0465,0,0,0,0,0,1.0145,1.0205,1.0242,1.0328,1.0349,1.0368,1.0403,1.0403,1.0444,1.0461,1.0489,1.053,1.0586,1.0624,1.0678,1.0782,1.079,1.0827,1.0839,1.0848,1.0857,1.0909,1.0925,1.0758,1.0758,1.0758,0,0,1.0191,1.0223,1.0261,1.0338,1.0369,1.0429,1.0383,1.045,1.0493,1.0472,1.0555,1.0577,1.0622,1.0718,1.0761,1.0739,1.0905,1.0858,1.0865,1.0869,1.0918,1.0934,1.0948,1.0763,1.0762,1.0761,0,0,1.0305,1.0337,1.041,1.0441,1.0488,1.05,1.0518,1.0561,1.0574,1.0658,1.0641,1.0694,1.0793,1.0825,1.0854,1.0975,1.0959,1.0993,1.1052,1.1102,1.1115,1.1127,1.1166,1.1181,1.1003,1.1003,1.1003,0,1.0355,1.0446,1.0449,1.0516,1.0549,1.0531,1.0603,1.0634,1.0697,1.0719,1.0694,1.0814,1.0845,1.0944,1.0973,1.1,1.1017,1.0987,1.1113,1.1125,1.1136,1.1173,1.1189,1.1007,1.1006,1.1006,1.1006,0,1.0504,1.0566,1.062,1.0678,1.0718,1.0787,1.08,1.0839,1.0836,1.085,1.0933,1.0968,1.1027,1.1052,1.105,1.1151,1.1135,1.1112,1.1066,1.1155,1.119,1.1205,1.1012,1.1011,1.1009,1.1009,0,0,1.0648,1.0706,1.0725,1.075,1.0799,1.0847,1.0915,1.0971,1.1003,1.1047,1.1101,1.1184,1.1161,1.1194,1.1196,1.124,1.1329,1.1211,1.1212,1.1228,1.1437,1.1451,1.1468,1.1319,1.1322,1.1325,1.1431,0,1.0762,1.088,1.0884,1.0992,1.1047,1.1029,1.1088,1.1123,1.1138,1.1186,1.1203,1.1259,1.1228,1.1247,1.129,1.1309,1.137,1.1302,1.1368,1.137,1.1353,1.1487,1.1504,1.1603,1.1446,1.1448,1.145,0,1.0911,1.0957,1.1069,1.1106,1.1129,1.1182,1.1232,1.128,1.1318,1.1326,1.1361,1.1355,1.1421,1.1375,1.1465,1.1418,1.1446,1.1458,1.1462,1.1466,1.1413,1.1491,1.1635,1.1648,1.1472,1.147,1.1469,0,1.1,1.109,1.1167,1.119,1.1236,1.1272,1.1293,1.1329,1.1362,1.1406,1.1426,1.1478,1.1506,1.1545,1.1552,1.1519,1.1641,1.1597,1.1647,1.1646,1.1671,1.1669,1.1818,1.1695,1.1695,1.1695,1.1694,0,1.1125,1.1193,1.1207,1.1254,1.1329,1.1333,1.1407,1.1425,1.1457,1.1506,1.1495,1.1541,1.155,1.1597,1.1604,1.1675,1.1689,1.1694,1.1694,1.1693,1.1692,1.1709,1.1701,1.1699,1.1698,1.1697,1.1696,0,1.1236,1.1248,1.1331,1.1367,1.1378,1.1431,1.1461,1.1506,1.1518,1.1581,1.1595,1.1615,1.167,1.1682,1.1748,1.1752,1.1835,1.1831,1.1822,1.182,1.1868,1.1862,1.2031,1.2051,1.1918,1.1919,1.192,0,1.1313,1.1364,1.1405,1.1437,1.1459,1.1511,1.1543,1.1548,1.1582,1.1628,1.1666,1.172,1.1763,1.1852,1.1871,1.1921,1.1915,1.1971,1.1922,1.1918,1.1911,1.1906,1.1909,1.1979,1.198,1.1982,1.1982,0,1.1447,1.1449,1.1496,1.1544,1.1583,1.1621,1.1658,1.1685,1.1694,1.1733,1.1788,1.1821,1.1887,1.1939,1.1988,1.2008,1.1996,1.1998,1.2011,1.2009,1.2,1.2001,1.1843,1.1993,1.1992,1.1991,1.1991,1.199,1.154,1.1583,1.1618,1.1669,1.1697,1.173,1.1772,1.1789,1.1835,1.1888,1.1889,1.1949,1.1983,1.2047,1.207,1.2116,1.2098,1.2119,1.2124,1.2128,1.213,1.1995,1.2126,1.2125,1.2125,1.2125,1.2125,0,1.167,1.169,1.1738,1.1788,1.1827,1.1813,1.1851,1.1885,1.1937,1.1971,1.2012,1.2074,1.2124,1.2147,1.2195,1.2227,1.2222,1.224,1.2235,1.2239,1.2145,1.2127,1.2242,1.2242,1.2242,1.2242,1.2242,1.2242,1.1741,1.1812,1.1819,1.1902,1.1922,1.198,1.2003,1.2033,1.2058,1.2127,1.2168,1.2183,1.2211,1.2261,1.2305,1.231,1.2327,1.2346,1.2348,1.2259,1.2247,1.2235,1.2218,1.235,1.2351,1.2438,1.2439,1.244]}]]